Terminal Aerodrome Forecast
Issued by NWS Raleigh/Durham, NC

Home | Current Version | Previous Version | Text Only | Print | Product List | Glossary On
Versions: 1 2 3 4 5 6 7 8 9 10 11 12 13 14 15 16 17 18 19 20 21 22 23 24 25 26 27 28 29 30 31 32 33 34 35 36 37 38 39 40 41 42 43 44 45 46 47 48 49 50
000
FTUS42 KRAH 210936 AAB
TAFRDU
TAF AMD
KRDU 210936Z 2110/2206 VRB03KT 5SM BR SCT004 BKN250
      TEMPO 2110/2112 2SM BR BKN004
     FM211300 30005KT P6SM BKN250
     FM211800 31007KT P6SM BKN050 BKN250=

USA.gov is the U.S. government's official web portal to all federal, state and local government web resources and services.